Regional Weather Roundup
Issued by NWS

Home | Current Version | Previous Version | Graphics & Text | Print | Product List | Glossary On
Versions: 1 2 3 4 5 6 7 8 9 10 11 12 13 14 15 16 17 18 19 20 21 22 23 24 25 26 27 28 29 30 31 32 33 34 35 36 37 38 39 40 41 42 43 44 45 46 47 48 49 50
000
ASUS43 KOAX 200810
RWRNE

WEATHER ROUNDUP FOR NEBRASKA
NATIONAL WEATHER SERVICE OMAHA NE
300 AM CDT SUN MAY 20 2018

NOTES: SATELLITE DATA IS BEING USED TO AUGMENT CLOUD COVER ABOVE
       12000 FEET.
       "FAIR" INDICATES FEW OR NO CLOUDS BELOW 12,000 FEET WITH NO
       SIGNIFICANT WEATHER AND/OR OBSTRUCTIONS TO VISIBILITY.


NEZ001>004-019>022-054>056-200900-
NEBRASKA PANHANDLE

CITY           SKY/WX    TMP DP  RH WIND       PRES   REMARKS
SCOTTSBLUFF    CLOUDY    44  42  93 W5        30.27S
ALLIANCE       CLOUDY    44  42  93 NW6       30.24S
CHADRON        CLOUDY    42  42 100 SW5       30.26S
GORDON         FAIR      42  38  83 N6        30.24S
KIMBALL        CLOUDY    40  39  97 CALM      30.27F
SIDNEY         CLOUDY    42  40  92 NW10      30.24F
$$

NEZ057>060-069>072-079>082-200900-
SOUTHWEST NEBRASKA

CITY           SKY/WX    TMP DP  RH WIND       PRES   REMARKS
NORTH PLATTE   CLOUDY    50  43  77 N12       30.15F
IMPERIAL       CLOUDY    46  44  93 NW14      30.18F
LEXINGTON      CLOUDY    52  50  95 N12       30.11S
MCCOOK         CLOUDY    49  45  86 N15       30.13F
OGALLALA       MOCLDY    46  45  95 NW7       30.20F
$$

NEZ005>010-023>029-035>040-094-200900-
NORTH CENTRAL NEBRASKA

CITY           SKY/WX    TMP DP  RH WIND       PRES   REMARKS
VALENTINE      CLOUDY    48  37  65 N12       30.19F
AINSWORTH      CLOUDY    48  43  81 N8        30.17F
BROKEN BOW     CLOUDY    51  46  83 NW15      30.11S
O`NEILL        CLOUDY    53  49  85 N10       30.10F
ORD            LGT RAIN  52  51  97 NW6       30.09F FOG
THEDFORD       CLOUDY    49  42  76 NW12      30.17F
$$

NEZ041-046>049-061>064-073>077-083>087-200900-
SOUTH CENTRAL NEBRASKA

CITY           SKY/WX    TMP DP  RH WIND       PRES   REMARKS
GRAND ISLAND   LGT RAIN  52  51  97 N8        30.08F FOG
AURORA         RAIN      52  52 100 N8        30.07F
HASTINGS       CLOUDY    52  51  97 N8        30.08S
HEBRON         CLOUDY    55  52  89 N6        30.05F
HOLDREGE       CLOUDY    50  50 100 N3        30.10R
KEARNEY        CLOUDY    51  50  96 N9        30.09S
YORK           LGT RAIN  54  54 100 N7        30.06F
$$

NEZ011>018-030>034-042>045-200900-
NORTHEAST NEBRASKA

CITY           SKY/WX    TMP DP  RH WIND       PRES   REMARKS
NORFOLK        CLOUDY    54  53  97 N8        30.08S
ALBION         RAIN      54  53  97 N6        30.08F
BLAIR          CLOUDY    57  55  95 N12       30.03F
COLUMBUS       LGT RAIN  55  53  93 N14       30.06F
FREMONT        CLOUDY    58  55  92 N7        30.06S
TEKAMAH        CLOUDY    57  55  93 N10       30.06R
WAYNE          CLOUDY    55  53  95 N8        30.09R
$$

NEZ050>053-065>068-078-088>093-200900-
SOUTHEAST NEBRASKA

CITY           SKY/WX    TMP DP  RH WIND       PRES   REMARKS
LINCOLN        LGT RAIN  56  54  93 W10       30.06R FOG
OMAHA EPPLEY   CLOUDY    58  55  90 N9        30.03F
BEATRICE       CLOUDY    56  55  94 NW9       30.04S
FALLS CITY     PTCLDY    59  56  89 N8        29.98F
NEBRASKA CITY  PTCLDY    56  56 100 NE8       30.01F FOG
PLATTSMOUTH    PTCLDY    57  55  94 N6        30.03S
$$

NEZ044-045-051>053-067-200900-
OMAHA AREA

CITY           SKY/WX    TMP DP  RH WIND       PRES   REMARKS
OMAHA EPPLEY   CLOUDY    58  55  90 N9        30.03F
BLAIR          CLOUDY    57  55  95 N12       30.03F
FREMONT        CLOUDY    58  55  92 N7        30.06S
MILLARD        CLOUDY    59  56  89 N3        30.04F
OFFUTT AFB     CLEAR     57  56  96 N6        30.02F
PLATTSMOUTH    PTCLDY    57  55  94 N6        30.03S
WAHOO          CLOUDY    57  54  89 N10       30.05F
$$



USA.gov is the U.S. government's official web portal to all federal, state and local government web resources and services.